Location: Newark
(35.8833°N, 14.5000°E)
Time: 11:55:10
(UTC+00:00)

Tiros 1 - All Passes

Search period start: 17 November 2019 00:00
Search period end: 27 November 2019 00:00
Orbit: 630 x 664 km, 48.4° (Epoch: 16 November)

Date Brightness Start Highest point End Pass type
(mag) Time Alt. Az. Time Alt. Az. Time Alt. Az.
17 Nov - 12:45:33 10° SSW 12:49:56 45° SE 12:54:20 10° ENE daylight
17 Nov - 14:27:55 10° W 14:32:11 36° NNW 14:36:29 10° NE daylight
17 Nov - 16:12:14 10° NW 16:15:23 18° N 16:18:34 10° NE visible
17 Nov - 17:55:18 10° NW 17:58:54 21° NNE 18:02:30 10° ENE visible
17 Nov - 19:37:07 10° NW 19:41:46 64° NNE 19:46:27 10° ESE visible
17 Nov - 21:20:01 10° W 21:23:39 22° SW 21:27:18 10° S night (unlit)
18 Nov - 11:31:14 10° S 11:34:11 17° SE 11:37:08 10° E daylight
18 Nov - 13:11:19 10° WSW 13:15:55 78° NW 13:20:32 10° NE daylight
18 Nov - 14:54:57 10° WNW 14:58:39 23° NNW 15:02:23 10° NE daylight
18 Nov - 16:39:02 10° NW 16:42:07 17° N 16:45:14 10° NE visible
18 Nov - 18:21:14 10° NW 18:25:25 32° NNE 18:29:38 10° E visible
18 Nov - 20:03:13 10° WNW 20:07:49 59° SW 20:12:26 10° SE night (unlit)
19 Nov - 11:55:37 10° SSW 11:59:55 41° SE 12:04:16 10° ENE daylight
19 Nov - 13:37:49 10° W 13:42:08 39° NNW 13:46:28 10° NE daylight
19 Nov - 15:22:07 10° NW 15:25:18 18° N 15:28:30 10° NE daylight
19 Nov - 17:05:18 10° NW 17:08:48 21° NNE 17:12:20 10° ENE visible
19 Nov - 18:47:07 10° NW 18:51:44 59° NNE 18:56:22 10° ESE visible
19 Nov - 20:29:53 10° WNW 20:33:39 24° SW 20:37:27 10° S night (unlit)
20 Nov - 10:41:32 10° SSE 10:44:12 15° SE 10:46:52 10° E daylight
20 Nov - 12:21:17 10° SW 12:25:53 84° NW 12:30:31 10° NE daylight
20 Nov - 14:04:49 10° WNW 14:08:35 24° NNW 14:12:21 10° NE daylight
20 Nov - 15:48:58 10° NW 15:52:01 17° N 15:55:06 10° NE daylight
20 Nov - 17:31:14 10° NW 17:35:21 30° NNE 17:39:29 10° E visible
20 Nov - 19:13:11 10° WNW 19:17:48 64° SW 19:22:27 10° SE visible
21 Nov - 11:05:41 10° SSW 11:09:56 37° SE 11:14:11 10° ENE daylight
21 Nov - 12:47:43 10° W 12:52:05 41° NNW 12:56:28 10° NE daylight
21 Nov - 14:31:59 10° NW 14:35:12 18° N 14:38:25 10° NE daylight
21 Nov - 16:15:17 10° NW 16:18:43 20° NNE 16:22:11 10° ENE visible
21 Nov - 17:57:06 10° NW 18:01:41 54° NNE 18:06:17 10° ESE visible
21 Nov - 19:39:45 10° WNW 19:43:39 27° SW 19:47:35 10° S visible
22 Nov - 09:51:53 10° SSE 09:54:14 14° SE 09:56:34 10° E daylight
22 Nov - 11:31:15 10° SW 11:35:52 89° SE 11:40:29 10° NE daylight
22 Nov - 13:14:41 10° WNW 13:18:30 25° NNW 13:22:20 10° NE daylight
22 Nov - 14:58:53 10° NW 15:01:55 17° N 15:04:58 10° NE daylight
22 Nov - 16:41:15 10° NW 16:45:17 29° NNE 16:49:20 10° E visible
22 Nov - 18:23:09 10° WNW 18:27:47 70° SW 18:32:26 10° SE visible
22 Nov - 20:08:41 10° WSW 20:09:19 10° SW 20:09:57 10° SW night (unlit)
23 Nov - 10:15:46 10° SSW 10:19:56 34° SE 10:24:06 10° ENE daylight
23 Nov - 11:57:37 10° WSW 12:02:02 44° NNW 12:06:27 10° NE daylight
23 Nov - 13:41:51 10° NW 13:45:07 19° N 13:48:23 10° NE daylight
23 Nov - 15:25:16 10° NW 15:28:38 19° NNE 15:32:01 10° ENE daylight
23 Nov - 17:07:06 10° NW 17:11:38 50° NNE 17:16:10 10° ESE visible
23 Nov - 18:49:38 10° WNW 18:53:39 29° SW 18:57:42 10° SSE visible
24 Nov - 09:02:18 10° SSE 09:04:14 12° SE 09:06:10 10° ESE daylight
24 Nov - 10:41:13 10° SW 10:45:51 82° SE 10:50:28 10° NE daylight
24 Nov - 12:24:33 10° WNW 12:28:26 26° NNW 12:32:19 10° NE daylight
24 Nov - 14:08:49 10° NW 14:11:50 17° N 14:14:51 10° NE daylight
24 Nov - 15:51:15 10° NW 15:55:12 27° NNE 15:59:11 10° E daylight
24 Nov - 17:33:07 10° WNW 17:37:45 76° SW 17:42:25 10° SE visible
24 Nov - 19:17:48 10° WSW 19:19:20 11° SW 19:20:52 10° SSW visible
25 Nov - 09:25:51 10° SSW 09:29:56 31° SE 09:34:00 10° ENE daylight
25 Nov - 11:07:32 10° WSW 11:11:59 47° NNW 11:16:27 10° NE daylight
25 Nov - 12:51:43 10° WNW 12:55:01 19° N 12:58:20 10° NE daylight
25 Nov - 14:35:14 10° NW 14:38:33 19° N 14:41:52 10° ENE daylight
25 Nov - 16:17:06 10° NW 16:21:35 47° NNE 16:26:04 10° ESE visible
25 Nov - 17:59:32 10° WNW 18:03:39 32° SW 18:07:47 10° SSE visible
26 Nov - 08:12:54 10° SE 08:14:15 11° SE 08:15:37 10° ESE daylight
26 Nov - 09:51:12 10° SW 09:55:49 76° SE 10:00:26 10° ENE daylight
26 Nov - 11:34:24 10° W 11:38:21 27° NNW 11:42:19 10° NE daylight
26 Nov - 13:18:43 10° NW 13:21:44 17° N 13:24:45 10° NE daylight
26 Nov - 15:01:14 10° NW 15:05:08 26° NNE 15:09:02 10° ENE daylight
26 Nov - 16:43:05 10° NW 16:47:44 83° SW 16:52:23 10° SE visible
26 Nov - 18:27:18 10° WSW 18:29:21 13° SW 18:31:24 10° SSW visible
